Year,Month,Day,Hour,Minute,Value (Times are PST for barometer in hPa)
2008,02,14,06,04,1002.47
2008,02,14,06,05,1002.47
2008,02,14,06,06,1001.21
2008,02,14,12,56,1000.37
2008,02,14,12,57,1000.37
2008,02,14,13,12,1031.49
2008,02,14,13,13,1031.49
2008,02,14,13,14,1031.49
2008,02,14,13,30,1031.43
2008,02,14,13,31,1031.43
2008,02,14,13,32,1031.43
2008,02,14,13,33,1031.43
2008,02,14,13,40,1031.73
2008,02,14,13,41,1031.77
2008,02,14,13,42,1031.77
2008,02,14,13,43,1031.77
2008,02,14,13,44,1031.77
2008,02,14,13,50,1059.87
2008,02,14,13,51,1059.87
2008,02,14,13,52,1059.87
2008,02,14,13,53,1059.87
2008,02,14,13,54,1059.87
2008,02,14,13,55,1059.87
2008,02,14,13,56,1059.87
2008,02,14,13,57,1059.87
2008,02,14,13,58,1059.87
2008,02,14,14,35,1059.70
2008,02,14,14,36,1059.70
2008,02,14,14,37,1059.70
2008,02,14,14,38,1001.49
2008,02,14,14,39,1003.16
2008,02,14,14,40,1031.63
2008,02,14,14,41,1031.63
2008,02,14,14,42,1031.63
2008,02,14,14,43,1031.63
2008,02,14,14,44,1031.49
2008,02,14,14,45,1031.49
2008,02,14,14,46,1001.49
2008,02,14,14,47,1001.49
2008,02,14,14,48,1029.60
2008,02,14,14,49,1029.60
2008,02,14,14,50,1029.60
2008,02,14,14,51,1029.60
2008,02,14,14,52,1029.60
2008,02,14,14,53,1029.60
2008,02,14,14,54,1029.60
2008,02,14,14,55,1029.60
2008,02,14,14,56,1029.60
2008,02,14,14,57,1029.73
2008,02,14,14,58,1029.73
2008,02,14,14,59,1029.73
2008,02,14,15,00,1029.73
2008,02,14,15,01,1029.73
2008,02,14,15,13,999.73
2008,02,14,15,14,999.73
2008,02,14,15,15,999.73
2008,02,14,15,16,999.73
2008,02,14,15,17,999.73
2008,02,14,15,18,999.73
2008,02,14,15,19,999.73
2008,02,14,15,20,999.73
2008,02,14,15,21,999.73
2008,02,14,15,22,999.73
2008,02,14,15,23,999.73
2008,02,14,15,29,1031.83
2008,02,14,15,30,1031.83
2008,02,14,15,31,1031.83
2008,02,14,15,32,1031.83
2008,02,14,15,47,999.73
2008,02,14,15,48,999.73
2008,02,14,15,49,999.73
2008,02,14,15,50,999.73
2008,02,14,15,51,1030.17
2008,02,14,15,52,1030.17
2008,02,14,15,53,1030.17
2008,02,14,15,54,1030.17
2008,02,14,15,55,1030.17
2008,02,14,15,56,1030.17
2008,02,14,15,57,1030.17
2008,02,14,15,58,1030.17
2008,02,14,15,59,1030.17
2008,02,14,16,00,1030.17
2008,02,14,16,01,1030.17
2008,02,14,16,02,1029.73
2008,02,14,16,03,1029.73
2008,02,14,16,04,1029.73
2008,02,14,16,05,1029.73
2008,02,14,16,06,1029.73
2008,02,14,16,07,1029.73
2008,02,14,16,08,1029.73
2008,02,14,16,09,1029.73
2008,02,14,16,10,1029.73
2008,02,14,16,11,1029.73
2008,02,14,16,12,1029.73
2008,02,14,16,13,1029.73
2008,02,14,16,14,1029.73
2008,02,14,16,15,1031.49
2008,02,14,16,16,1031.49
2008,02,14,16,17,1031.49
2008,02,14,16,18,1031.49
2008,02,14,16,19,1031.49
2008,02,14,16,20,1031.49
2008,02,14,16,21,1031.49
2008,02,14,16,22,1031.49
2008,02,14,16,23,1029.70
2008,02,14,16,24,1029.53
2008,02,14,16,25,1029.80
2008,02,14,16,26,1029.80
2008,02,14,16,27,1029.80
2008,02,14,16,28,1029.80
2008,02,14,16,29,1029.80
2008,02,14,16,30,1029.80
2008,02,14,16,31,1029.80
2008,02,14,16,32,1029.80
2008,02,14,16,33,1029.80
2008,02,14,16,34,1059.97
2008,02,14,16,35,1059.97
2008,02,14,21,26,1003.76
2008,02,14,21,27,1003.76
2008,02,14,21,28,1003.76
2008,02,14,21,29,1003.76
2008,02,14,21,30,1003.76
2008,02,14,21,31,1003.76
